User: anonymous   Login
Location: Hiram
(41.3130°N, 81.1440°W)
Time: 17:27:48
(UTC-04:00)
Language:

Iridium 62 - Orbit

View from above orbital plane
View from above orbital plane
View from above satellite
View from above satellite

Ground track
Ground track

The orbit data is extracted from the following two-line orbital elements,

1 25285U 98021A   15183.45847642  .00000021  00000-0  46524-6 0  9990
2 25285 086.3978 163.1016 0002302 090.3468 269.7991 14.34217926902430
Epoch (UTC): 02 July 2015 11:00:12
Eccentricity: 0.0002302
inclination: 86.3978°
perigee height: 776 km
apogee height: 779 km
right ascension of ascending node: 163.1016°
argument of perigee: 90.3468°
revolutions per day: 14.34217926
mean anomaly at epoch: 269.7991°
orbit number at epoch: 90243

The dashed part of the orbit path shows where the satellite is in the earth's shadow,  

DLR